Retour au catalogue

KUIPER-00152

ActifCommunicationsLEO
NORAD 65772·PAYLOAD·🇺🇸 United States

Lancé Sep 25, 2025 depuis Cape Canaveral Space Force Station

Loading…

Prochains Passages (prochaines 24 heures)

TLE

FraisSource: CelesTrak SupGP

Époque: Sep 14, 2026, 22:25 UTC

1 65772C 25217L   26257.93444444  .00003037  00000+0  39768-3 0  2577
2 65772  51.8993 273.7641 0000513  48.0307  53.8573 14.79914551    13

Suivez KUIPER-00152 en temps réel avec AllMySat

Download on the App Store